Weather History for Waupaca, WI

Change the Weather History Date:

Saturday, February 2, 2013

  Actual Average Record
Temperature  
Mean Temperature 9 °F -  
Max Temperature 17 °F 26 °F 44 °F (1987)
Min Temperature 1 °F 6 °F -27 °F (1951)
Degree Days  
Heating Degree Days 56    
Moisture  
Dew Point -2 °F    
Average Humidity 65    
Maximum Humidity 85    
Minimum Humidity 38    
Precipitation  
Precipitation 0.00 in - - ()
Sea Level Pressure  
Sea Level Pressure 30.06 in    
Wind  
Wind Speed 2 mph (WNW)    
Max Wind Speed 7 mph    
Max Gust Speed -    
Visibility 9 miles    
Events Snow    
Averages and records for this station are not official NWS values.
T = Trace of Precipitation, MM = Missing Value Source: NWS Daily Summary

Daily Weather History Graph

Daily Weather History Graph

Search for Another Location

Airport:

Trip Planner

Search our weather history database for the weather conditions in past years. The results will help you decide how hot, cold, wet, or windy it might be!

Date:

Astronomy

Feb. 02, 2013 Rise Set
Actual Time 7:12 AM CST 5:07 PM CST
Civil Twilight 6:42 AM CST 5:38 PM CST
Nautical Twilight 6:07 AM CST 6:12 PM CST
Astronomical Twilight 5:33 AM CST 6:46 PM CST
Moon No Moon Rise 10:05 AM CST (2/2)
Length of Visible Light 10h 56m
Length of Day
9h 54m
Waning Gibbous, 59% of the Moon is Illuminated
Feb 2
Waning Gibbous
Feb 3
Last Quarter
Feb 10
New
Feb 17
First Quarter
Feb 25
Full

Hourly Weather History & Observations

Time (CST) Temp. Windchill Dew Point Humidity Pressure Visibility Wind Dir Wind Speed Gust Speed Precip Events Conditions
12:15 AM 5.0 °F - -0.4 °F 78% 30.09 in 1.8 mi Calm Calm - N/A Snow Light Snow
12:55 AM 5.0 °F - -0.4 °F 78% 30.09 in 1.8 mi Calm Calm - N/A Snow Light Snow
1:15 AM 5.0 °F - -0.4 °F 78% 30.08 in 3.0 mi Calm Calm - N/A Snow Light Snow
1:35 AM 5.0 °F - -0.4 °F 78% 30.08 in 2.5 mi Calm Calm - N/A Snow Light Snow
1:55 AM 5.0 °F - -0.4 °F 78% 30.08 in 4.0 mi Calm Calm - N/A Snow Light Snow
2:15 AM 5.0 °F - -0.4 °F 78% 30.08 in 4.0 mi Calm Calm - N/A Snow Light Snow
2:35 AM 5.0 °F - -0.4 °F 78% 30.07 in 7.0 mi Calm Calm - N/A Snow Light Snow
2:55 AM 5.0 °F - -0.4 °F 78% 30.07 in 3.0 mi Calm Calm - N/A Snow Light Snow
3:15 AM 5.0 °F - -0.4 °F 78% 30.06 in 3.0 mi Calm Calm - N/A Snow Light Snow
3:35 AM 5.0 °F - -0.4 °F 78% 30.06 in 3.0 mi Calm Calm - N/A Snow Light Snow
3:55 AM 5.0 °F - -0.4 °F 78% 30.05 in 4.0 mi Calm Calm - N/A Snow Light Snow
4:15 AM 5.0 °F - -0.4 °F 78% 30.05 in 7.0 mi Calm Calm - N/A Snow Light Snow
4:35 AM 5.0 °F - -0.4 °F 78% 30.05 in 10.0 mi Calm Calm - N/A   Overcast
4:55 AM 5.0 °F - -0.4 °F 78% 30.06 in 10.0 mi Calm Calm - N/A   Overcast
5:15 AM 5.0 °F -2.1 °F -0.4 °F 78% 30.06 in 10.0 mi North 3.5 mph - N/A   Overcast
5:35 AM 5.0 °F - -0.4 °F 78% 30.06 in 10.0 mi Calm Calm - N/A   Overcast
5:55 AM 5.0 °F - -0.4 °F 78% 30.06 in 10.0 mi Calm Calm - N/A   Overcast
6:15 AM 5.0 °F - -0.4 °F 78% 30.06 in 10.0 mi Calm Calm - N/A   Overcast
6:35 AM 5.0 °F -2.1 °F -0.4 °F 78% 30.07 in 10.0 mi NNW 3.5 mph - N/A   Overcast
6:55 AM 5.0 °F -5.6 °F -0.4 °F 78% 30.07 in 10.0 mi NW 5.8 mph - N/A   Overcast
7:15 AM 5.0 °F -6.9 °F -2.2 °F 72% 30.07 in 10.0 mi NW 6.9 mph - N/A   Overcast
7:35 AM 5.0 °F -6.9 °F -2.2 °F 72% 30.08 in 10.0 mi NNW 6.9 mph - N/A   Overcast
7:55 AM 5.0 °F -4.1 °F -2.2 °F 72% 30.09 in 10.0 mi NNW 4.6 mph - N/A   Overcast
8:15 AM 5.0 °F -6.9 °F -2.2 °F 72% 30.09 in 10.0 mi NNW 6.9 mph - N/A   Overcast
8:35 AM 5.0 °F -6.9 °F -4.0 °F 66% 30.10 in 10.0 mi NNW 6.9 mph - N/A   Overcast
8:55 AM 5.0 °F -4.1 °F -4.0 °F 66% 30.10 in 10.0 mi NNW 4.6 mph - N/A   Overcast
9:15 AM 5.0 °F -4.1 °F -5.8 °F 61% 30.10 in 10.0 mi NNW 4.6 mph - N/A   Mostly Cloudy
9:35 AM 6.8 °F -3.5 °F -5.8 °F 56% 30.11 in 10.0 mi NNW 5.8 mph - N/A   Scattered Clouds
9:55 AM 8.6 °F 0.1 °F -5.8 °F 52% 30.10 in 10.0 mi NNW 4.6 mph - N/A   Clear
10:15 AM 8.6 °F -1.3 °F -4.0 °F 57% 30.10 in 10.0 mi NNW 5.8 mph - N/A   Clear
10:35 AM 10.4 °F 2.2 °F -5.8 °F 48% 30.11 in 10.0 mi NNW 4.6 mph - N/A   Clear
10:55 AM 10.4 °F - -4.0 °F 52% 30.10 in 10.0 mi Calm Calm - N/A   Clear
11:15 AM 12.2 °F 4.3 °F -4.0 °F 48% 30.10 in 10.0 mi NNW 4.6 mph - N/A   Clear
11:35 AM 12.2 °F 6.1 °F -4.0 °F 48% 30.09 in 10.0 mi NNW 3.5 mph - N/A   Clear
11:55 AM 14.0 °F - -4.0 °F 45% 30.09 in 10.0 mi Calm Calm - N/A   Clear
12:15 PM 15.8 °F - -4.0 °F 41% 30.08 in 10.0 mi Calm Calm - N/A   Clear
12:35 PM 14.0 °F 8.2 °F -4.0 °F 45% 30.07 in 10.0 mi WSW 3.5 mph - N/A   Clear
12:55 PM 15.8 °F 10.2 °F -2.2 °F 45% 30.07 in 10.0 mi WSW 3.5 mph - N/A   Clear
1:15 PM 15.8 °F - -4.0 °F 41% 30.06 in 10.0 mi Calm Calm - N/A   Clear
1:35 PM 15.8 °F 10.2 °F -2.2 °F 45% 30.06 in 10.0 mi West 3.5 mph - N/A   Clear
1:55 PM 17.6 °F - -2.2 °F 42% 30.06 in 10.0 mi Calm Calm - N/A   Clear
2:15 PM 17.6 °F 10.7 °F -4.0 °F 38% 30.06 in 10.0 mi West 4.6 mph - N/A   Clear
2:35 PM 17.6 °F 10.7 °F -4.0 °F 38% 30.06 in 10.0 mi West 4.6 mph - N/A   Clear
2:55 PM 17.6 °F 12.3 °F -4.0 °F 38% 30.06 in 10.0 mi West 3.5 mph - N/A   Clear
3:15 PM 17.6 °F 12.3 °F -4.0 °F 38% 30.06 in 10.0 mi SW 3.5 mph - N/A   Clear
3:35 PM 15.8 °F 8.6 °F -2.2 °F 45% 30.05 in 10.0 mi West 4.6 mph - N/A   Clear
3:55 PM 14.0 °F 6.5 °F -4.0 °F 45% 30.05 in 10.0 mi West 4.6 mph - N/A   Clear
4:15 PM 12.2 °F 4.3 °F -4.0 °F 48% 30.05 in 10.0 mi WSW 4.6 mph - N/A   Clear
4:35 PM 12.2 °F 2.9 °F -2.2 °F 53% 30.05 in 10.0 mi SW 5.8 mph - N/A   Clear
4:55 PM 12.2 °F 1.7 °F -0.4 °F 57% 30.06 in 10.0 mi WSW 6.9 mph - N/A   Scattered Clouds
5:15 PM 12.2 °F 2.9 °F 1.4 °F 62% 30.06 in 10.0 mi WSW 5.8 mph - N/A   Scattered Clouds
5:55 PM 10.4 °F 4.0 °F -0.4 °F 62% 30.06 in 10.0 mi WSW 3.5 mph - N/A   Mostly Cloudy
6:15 PM 10.4 °F 4.0 °F -0.4 °F 62% 30.06 in 10.0 mi SW 3.5 mph - N/A   Overcast
6:55 PM 8.6 °F - -0.4 °F 67% 30.05 in 10.0 mi Calm Calm - N/A   Scattered Clouds
7:15 PM 8.6 °F 2.0 °F -0.4 °F 67% 30.05 in 10.0 mi SW 3.5 mph - N/A   Clear
7:35 PM 5.0 °F -2.1 °F -2.2 °F 72% 30.05 in 10.0 mi SW 3.5 mph - N/A   Clear
8:15 PM 3.2 °F - -2.2 °F 78% 30.04 in 10.0 mi Calm Calm - N/A   Clear
8:35 PM 3.2 °F - -4.0 °F 72% 30.03 in 10.0 mi Calm Calm - N/A   Clear
8:55 PM 1.4 °F - -4.0 °F 78% 30.02 in 10.0 mi Calm Calm - N/A   Clear
9:15 PM 1.4 °F - -4.0 °F 78% 30.02 in 10.0 mi Calm Calm - N/A   Scattered Clouds
9:35 PM 1.4 °F - -4.0 °F 78% 30.02 in 10.0 mi Calm Calm - N/A   Mostly Cloudy
9:55 PM 3.2 °F - -4.0 °F 72% 30.02 in 10.0 mi Calm Calm - N/A   Scattered Clouds
10:15 PM 3.2 °F - -4.0 °F 72% 30.01 in 10.0 mi Calm Calm - N/A   Mostly Cloudy
10:35 PM 3.2 °F - -2.2 °F 78% 30.00 in 10.0 mi Calm Calm - N/A   Mostly Cloudy
10:55 PM 3.2 °F - -2.2 °F 78% 29.99 in 10.0 mi Calm Calm - N/A   Overcast
11:15 PM 3.2 °F - -0.4 °F 85% 29.98 in 10.0 mi Calm Calm - N/A   Overcast
11:35 PM 5.0 °F - -0.4 °F 78% 29.98 in 10.0 mi Calm Calm - N/A   Overcast
11:55 PM 3.2 °F - -2.2 °F 78% 29.98 in 10.0 mi Calm Calm - N/A   Overcast